Flag for Malaysia Weather past 2 weeks in Kuching, Malaysia

Now
90 °F

Broken clouds.


Feels Like: 100 °F
Forecast: 77 / 93 °F
Wind: 8 mph from Northeast

Location: Kuching Airport

Current Time: Jul 28, 2014 at 3:56:34 PM

Latest Report: Jul 28, 2014 at 3:30 PM


Visibility: 2 mi

Pressure: 29.74 "Hg

Humidity: 63%

Dew point: 75 °F

Location of KuchingLocation

Historic Weather in Kuching — Graph

°F

Kuching temperature yesterday

Maximum temperature yesterday: 97 °F (at 1:30 PM)
Minimum temperature yesterday: 75 °F (at 6:00 AM)
Average temperature yesterday: 85 °F

Past Weeks' High & Low Weather Summary

 TemperatureHumidityPressure
High99 °F (Jul 26, 4:00 PM)100% (Jul 14, 4:30 AM)29.89 "Hg (Jul 14, 4:30 AM)
Low75 °F (Jul 17, 5:00 AM)32% (Jul 27, 1:30 PM)29.71 "Hg (Jul 17, 4:00 PM)
Average85 °F74%29.81 "Hg
* Reported Jul 13 2:00 PM — Jul 28 2:30 PM, Kuching, Weather by CustomWeather, © 2014

Note: Actual official high and low records may vary slightly from our data, if they occured in-between our weather recording intervals... More about our weather records

Advertising

Kuching weather history for previous 24 hours

 ConditionsComfort  
Time TempWeatherWind HumidityBarometerVisibility
2:30 PM
Jul 28
93 °FBroken clouds.5 mph53%29.74 "Hg2 mi
2:00 PM91 °FBroken clouds.8 mph56%29.77 "Hg2 mi
1:30 PM93 °FBroken clouds.5 mph49%29.77 "Hg2 mi
1:00 PM93 °FBroken clouds.5 mph49%29.80 "Hg2 mi
12:30 PM93 °FPartly sunny.5 mph47%29.80 "Hg2 mi
12:00 PM91 °FPartly sunny.3 mph52%29.83 "Hg2 mi
11:30 AM91 °FPartly sunny.3 mph59%29.83 "Hg2 mi
11:00 AM90 °FPartly sunny.2 mph63%29.83 "Hg2 mi
10:30 AM88 °FPartly sunny.3 mph66%29.86 "Hg2 mi
10:00 AM86 °FPartly sunny.3 mph70%29.86 "Hg2 mi
9:30 AM84 °FPartly sunny.2 mph74%29.86 "Hg2 mi
9:00 AM82 °FPartly sunny.5 mph79%29.86 "Hg2 mi
8:30 AM81 °FPartly sunny.3 mph84%29.86 "Hg2 mi
8:00 AM79 °FPartly sunny.3 mph89%29.86 "Hg2 mi
7:30 AM77 °FPartly sunny.2 mph89%29.86 "Hg2 mi
7:00 AM77 °FPartly sunny.5 mph89%29.86 "Hg2 mi
6:30 AM77 °FPartly cloudy.6 mph89%29.83 "Hg2 mi
6:00 AM79 °FPassing clouds.7 mph84%29.83 "Hg4 mi
5:30 AM79 °FPassing clouds.6 mph84%29.83 "Hg4 mi
5:00 AM79 °FPassing clouds.5 mph84%29.83 "Hg4 mi
4:30 AM79 °FPartly cloudy.3 mph89%29.83 "Hg4 mi
4:00 AM79 °FPartly cloudy.5 mph89%29.80 "Hg4 mi
3:30 AM79 °FPartly cloudy.5 mph89%29.80 "Hg4 mi
3:00 AM79 °FPartly cloudy.2 mph89%29.80 "Hg4 mi
2:30 AM79 °FPartly cloudy.5 mph89%29.80 "Hg4 mi
2:00 AM79 °FPassing clouds.1 mph89%29.83 "Hg4 mi
1:30 AM79 °FPassing clouds.3 mph89%29.83 "Hg4 mi
1:00 AM81 °FPassing clouds.2 mph89%29.86 "Hg4 mi
12:30 AM81 °FPassing clouds.3 mph89%29.86 "Hg4 mi
12:00 AM81 °FPassing clouds.5 mph84%29.86 "Hg4 mi
11:30 PM
Jul 27
81 °FPassing clouds.3 mph84%29.89 "Hg4 mi
11:00 PM81 °FPassing clouds.2 mph84%29.89 "Hg4 mi
10:30 PM81 °FPassing clouds.1 mph89%29.86 "Hg4 mi
10:00 PM82 °FPassing clouds.3 mph84%29.86 "Hg4 mi
9:30 PM86 °FPassing clouds.2 mph75%29.86 "Hg4 mi
9:00 PM86 °FPassing clouds.3 mph75%29.86 "Hg4 mi
8:30 PM86 °FPassing clouds.6 mph75%29.83 "Hg4 mi
8:00 PM86 °FPassing clouds.6 mph75%29.83 "Hg4 mi
7:30 PM86 °FPassing clouds.6 mph70%29.80 "Hg4 mi
7:00 PM86 °FPassing clouds.7 mph70%29.80 "Hg4 mi
6:30 PM88 °FPartly sunny.9 mph66%29.80 "Hg4 mi
6:00 PM88 °FPartly sunny.9 mph62%29.77 "Hg4 mi
5:30 PM90 °FPartly sunny.14 mph59%29.77 "Hg4 mi
5:00 PM93 °FPartly sunny.14 mph53%29.77 "Hg5 mi
4:30 PM95 °FPartly sunny.12 mph47%29.77 "Hg5 mi
4:00 PM97 °FBroken clouds.8 mph37%29.74 "Hg5 mi
3:30 PM97 °FBroken clouds.8 mph37%29.77 "Hg5 mi
3:00 PM97 °FBroken clouds.10 mph37%29.77 "Hg5 mi
Weather by CustomWeather, © 2014

See weather overviewHow to use our weather pages